Regional Weather Roundup
Issued by NWS

Home | Current Version | Previous Version | Graphics & Text | Print | Product List | Glossary On
Versions: 1 2 3 4 5 6 7 8 9 10 11 12 13 14 15 16 17 18 19 20 21 22 23 24 25 26 27 28 29 30 31 32 33 34 35 36 37 38 39 40 41 42 43 44 45 46 47 48 49 50
000
ASUS45 KTFX 162119
RWRMT
MONTANA HOURLY WEATHER ROUNDUP
NATIONAL WEATHER SERVICE GREAT FALLS MT
319 PM MDT TUE SEP 16 2014

NOTE: "FAIR" INDICATES FEW OR NO CLOUDS BELOW 12000 FEET WITH NO
SIGNIFICANT WEATHER AND/OR OBSTRUCTIONS TO VISIBILITY.

* THESE STATIONS ARE NOT UNDER NWS QUALITY CONTROL. THEY DO NOT
   REPORT WEATHER SUCH AS PRECIPITATION OR FOG.

MTZ001>007-043-162200-
WEST OF THE DIVIDE
CITY           SKY/WX    TMP DP  RH WIND       PRES   REMARKS
KALISPELL      PTCLDY    75  37  25 VRB3      29.94F
MISSOULA       CLOUDY    73  37  27 CALM      29.96F
BUTTE          CLOUDY    72  37  28 SW3       30.12F
MULLAN PASS    CLOUDY    66  41  40 VRB3      30.10F
* ESSEX        N/A       75  40  28 N3         N/A
* LINCOLN      N/A       71  37  29 SW2        N/A
* LOOKOUT PASS N/A       72  45  38 S4         N/A
* POLSON       N/A       76  42  30 SW3        N/A
* RONAN APT    PTSUNNY   73  41  32 W6         N/A
* SEELEY LAKE  N/A       77  35  22 SW2        N/A
* THOMP F APT  CLOUDY    75  34  22 SE8G13     N/A
$$

MTZ008-052>055-162200-
SOUTHWEST MONTANA
CITY           SKY/WX    TMP DP  RH WIND       PRES   REMARKS
BOZEMAN        PTSUNNY   73  39  29 NW5       30.07S
DILLON         CLOUDY    77  37  24 E3        30.11F
W YELLOWSTONE  CLOUDY    66  36  33 NW12G25   30.22S
* THREE FORKS  CLOUDY    73  57  57 E6         N/A
* BOULDER HILL N/A       72  36  27 S12G19     N/A
* MONIDA PASS  N/A       72  35  26 NW6G12     N/A
* RAYNOLDS PAS N/A       67  50  55 S10G17     N/A
* WHITEHALL    N/A       73  41  32 S4         N/A
* WISE RIVER   N/A       68  41  38 SE6G11     N/A
$$

MTZ009>010-012-014-046-048-049-054-162200-
EAST SLOPES AND CENTRAL MONTANA
CITY           SKY/WX    TMP DP  RH WIND       PRES   REMARKS
CUT BANK       SUNNY     82  36  19 SE5       29.93F
GREAT FALLS    PTSUNNY   79  39  24 SW12      29.95F
HELENA         CLOUDY    73  39  29 CALM      30.01F
MALMSTROM AFB  PTCLDY    79  41  26 W6        29.95F
* CONRAD       SUNNY     82  43  25 E6         N/A
* EAST GLACIER N/A       76  32  20 NW9G14     N/A
* MONARCH      N/A       73  30  20 SW10       N/A
* PENDROY      N/A       81  39  22 SE4        N/A
* ROGERS PASS  N/A       72  32  23 E8G17      N/A
* SAINT MARY   N/A       79  32  18 SW7G15     N/A
* SWEET GRASS  N/A       78  34  20 S8G15      N/A
* WHITE SULPH  N/A       76  41  29 NW2G7      N/A
$$

MTZ011-013-016-021-035-040-045-047-050-051-162200-
NORTH CENTRAL MONTANA
CITY           SKY/WX    TMP DP  RH WIND       PRES   REMARKS
HAVRE          PTCLDY    79  45  30 SW5       29.92F
LEWISTOWN      PTSUNNY   79  43  28 N5        30.00F
* CHINOOK      SUNNY     75  48  39 E3        29.91F
* FORT BENTON  PTCLDY    79  43  28 CALM      29.92F
* CHESTER      N/A       80  35  20 SE2        N/A
* DENTON       N/A       82  37  20 NE3        N/A
* GEYSER       N/A       79  38  23 NW6        N/A
* JUDITH GAP   N/A       80  37  21 NW12G19    N/A
* LOMA         N/A       77  40  27 SW2        N/A
$$

MTZ017>020-022>027-061-062-162200-
NORTHEAST MONTANA
CITY           SKY/WX    TMP DP  RH WIND       PRES   REMARKS
GLASGOW        PTCLDY    75  43  32 VRB6      29.93F
GLENDIVE       SUNNY     73  45  37 NW5       29.96F
JORDAN         SUNNY     79  46  31 VRB5      29.93F
SIDNEY         SUNNY     73  37  27 NE3       29.95F
WOLF POINT     PTCLDY    75  39  27 CALM      29.93F
* BEAVER HILL  N/A       74  44  34 N/A        N/A
* CIRCLE       N/A       78  48  35 N/A        N/A
* LINDSAY DVD  N/A       75  42  31 S4         N/A
* NAVAJO       N/A       74  37  26 SE3G9      N/A
* SACO         N/A       75  43  32 SE7        N/A
$$

MTZ028>042-056>058-162200-
SOUTHCENTRAL AND SOUTHEAST MONTANA
CITY           SKY/WX    TMP DP  RH WIND       PRES   REMARKS
BAKER          SUNNY     77  46  33 NW8       29.96F
BILLINGS       PTSUNNY   82  34  18 SW8       29.97F
LIVINGSTON     PTCLDY    82  36  19 NW6       30.03F
MILES CITY     PTCLDY    79  45  30 VRB3      29.94F
* LAUREL APT   PTSUNNY   82  39  22 SE5        N/A
* ROUNDUP APT  PTSUNNY   81  43  26 N/A        N/A
* ALZADA       N/A       82  33  17 W6G12      N/A
* HYSHAM       N/A       78  41  27 W4         N/A
* LAME DEER    N/A       77  41  28 N/A        N/A
* REED POINT   N/A       83  42  23 NW6        N/A
* ROSCOE HILL  N/A       79  22  12 VRB2G8     N/A
$$

REGIONAL REPORTS...DAKOTAS
CITY           SKY/WX    TMP DP  RH WIND       PRES   REMARKS
WILLISTON      SUNNY     73  34  24 VRB6      29.94F
DICKINSON      SUNNY     73  46  38 N7        29.94F
BEACH          N/A       73  45  37 W6        29.96F
CROSBY         HAZE      73  37  27 SW6       29.94F VSB 3
TIOGA          SUNNY     72  36  27 CALM      29.98F
WATFORD CITY   SUNNY     73  32  22 NE7       29.92F
BISMARCK       SUNNY     75  45  34 VRB3      29.94F
GRAND FORKS    PTCLDY    73  43  34 SW8       29.94F
FARGO          SUNNY     72  39  30 S3        29.97F
BUFFALO SD     PTCLDY    79  45  30 NW8G16    29.89F
RAPID CITY     PTCLDY    81  45  28 SE6       29.97F
$$

REGIONAL REPORTS...WYOMING/IDAHO/WASHINGTON
CITY           SKY/WX    TMP DP  RH WIND       PRES   REMARKS
GILLETTE       PTCLDY    84  36  18 W9        30.01F
SHERIDAN       PTCLDY    82  32  16 VRB3      30.00F
CODY           PTSUNNY   73  45  37 N9        30.07S
YELLOWSTONE LA CLOUDY    64  30  28 VRB3      30.31F
SALMON         PTSUNNY   70  39  32 CALM      30.03F
MULLAN PASS    CLOUDY    66  41  40 VRB3      30.10S
SAND POINT     PTCLDY    77  45  32 E7        29.89F
SPOKANE        PTSUNNY   79  41  26 NE8       29.88F
$$

REGIONAL REPORTS...ALBERTA
CITY           SKY/WX    TMP DP  RH WIND       PRES   REMARKS
CALGARY        SUNNY     75  41  30 S3        29.90F
LETHBRIDGE     PTSUNNY   79  36  21 E3        29.88F
MEDICINE HAT   SUNNY     77  45  32 VRB2      29.89F
EDMONTON       SUNNY     79  46  31 W6        29.84F
WATERTON GATE  N/A       81  34  18 SW8        N/A
CARDSTON       N/A       81  36  20 E2         N/A
$$

REGIONAL REPORTS...SASKATCHEWAN
CITY           SKY/WX    TMP DP  RH WIND       PRES   REMARKS
SWIFT CURRENT  SUNNY     75  39  27 S8        29.89F
MOOSE JAW      SUNNY     75  43  32 SW9       29.91F
REGINA         SUNNY     73  45  37 W5        29.90F
VAL MARIE      N/A       75  45  34 S9         N/A
ASSINIBOIA     N/A       75  37  25 SW9        N/A
CORONACH       N/A       75  39  27 W6         N/A

$$



USA.gov is the U.S. government's official web portal to all federal, state and local government web resources and services.